DW5963 Weather Reports


time (UTC)temp
C
wind
direction
speed
KPH
gust
KPH
rain 1hr
cm
rain 24hr
cm
rain mn
cm
humidity
%
barometer
mb
20260504080529 9 360 17.7 0.0 0.00 0.00 0.00 47 1005.6
20260504050511 13 360 20.9 0.0 0.00 0.00 0.00 40 1003.3
20260504050012 13 360 19.3 0.0 0.00 0.00 0.00 40 1003.3
20260504045010 13 360 19.3 0.0 0.00 0.00 0.00 41 1003.0
20260504044514 13 360 19.3 0.0 0.00 0.00 0.00 43 1003.0
20260504044010 13 360 19.3 0.0 0.00 0.00 0.00 44 1003.1
20260504043510 13 360 19.3 0.0 0.00 0.00 0.00 44 1003.2
20260504043013 13 360 20.9 0.0 0.00 0.00 0.00 44 1003.3
20260504042509 13 360 24.1 0.0 0.00 0.00 0.00 43 1003.3
20260504042009 13 360 20.9 0.0 0.00 0.00 0.00 42 1003.2
20260504041532 13 360 19.3 0.0 0.00 0.00 0.00 43 1003.1
20260504041009 14 360 19.3 0.0 0.00 0.00 0.00 43 1003.1
20260504040510 14 360 20.9 0.0 0.00 0.00 0.00 42 1002.9
20260504040015 14 360 20.9 0.0 0.00 0.00 0.00 41 1002.7
20260504035010 14 360 17.7 0.0 0.00 0.00 0.00 40 1002.5
20260504034511 15 360 17.7 0.0 0.00 0.00 0.00 40 1002.3
20260504034009 15 360 20.9 0.0 0.00 0.00 0.00 39 1002.1
20260504033509 15 360 24.1 0.0 0.00 0.00 0.00 38 1001.9
20260504033009 15 360 25.7 0.0 0.00 0.00 0.00 38 1001.8
20260504032511 16 360 27.4 0.0 0.00 0.00 0.00 38 1001.7
20260504032009 16 360 29.0 0.0 0.00 0.00 0.00 37 1001.5
20260504031509 16 360 33.8 0.0 0.00 0.00 0.00 37 1001.4
20260504031008 16 360 37.0 0.0 0.00 0.00 0.00 36 1001.2
20260504030508 16 360 33.8 0.0 0.00 0.00 0.00 36 1000.9
20260504030008 17 360 27.4 0.0 0.00 0.00 0.00 34 1000.8
20260504025007 20 360 20.9 0.0 0.00 0.00 0.00 32 999.8
20260504024506 20 360 20.9 0.0 0.00 0.00 0.00 33 999.8
20260504024006 20 360 22.5 0.0 0.00 0.00 0.00 32 999.8
20260504023507 20 360 22.5 0.0 0.00 0.00 0.00 33 999.7
20260504023007 20 360 24.1 0.0 0.00 0.00 0.00 32 999.7
20260504022507 20 360 24.1 0.0 0.00 0.00 0.00 32 999.7
20260504022006 20 360 24.1 0.0 0.00 0.00 0.00 32 999.7
20260504021506 20 360 25.7 0.0 0.00 0.00 0.00 32 999.6
20260504021006 21 360 27.4 0.0 0.00 0.00 0.00 31 999.6
20260504020505 21 360 27.4 0.0 0.00 0.00 0.00 31 999.5
20260504020009 21 360 25.7 0.0 0.00 0.00 0.00 31 999.5
20260504015007 21 360 27.4 0.0 0.00 0.00 0.00 31 999.5
20260504014505 21 360 27.4 0.0 0.00 0.00 0.00 30 999.5
20260504014009 22 360 29.0 0.0 0.00 0.00 0.00 29 999.5
20260504013508 22 360 29.0 0.0 0.00 0.00 0.00 28 999.5
20260504013005 22 360 29.0 0.0 0.00 0.00 0.00 26 999.5
20260504012508 22 360 29.0 0.0 0.00 0.00 0.00 25 999.4
20260504012005 22 360 27.4 0.0 0.00 0.00 0.00 23 999.5
20260504011505 22 360 27.4 0.0 0.00 0.00 0.00 22 999.5
20260504011004 23 360 27.4 0.0 0.00 0.00 0.00 21 999.5
20260504010506 23 360 22.5 0.0 0.00 0.00 0.00 23 999.6
20260504010004 23 360 22.5 0.0 0.00 0.00 0.00 23 999.5
20260504005003 23 360 25.7 0.0 0.00 0.00 0.00 23 999.6
20260504004505 23 360 29.0 0.0 0.00 0.00 0.00 23 999.7
20260504004001 23 360 30.6 0.0 0.00 0.00 0.00 22 999.7
20260504003501 23 360 32.2 0.0 0.00 0.00 0.00 21 999.7
20260504003001 23 360 32.2 0.0 0.00 0.00 0.00 21 999.8
20260504002600 24 360 32.2 0.0 0.00 0.00 0.00 21 999.9
20260504002059 24 360 32.2 0.0 0.00 0.00 0.00 20 1000.0
20260504001600 24 360 32.2 0.0 0.00 0.00 0.00 20 1000.1
20260504001059 24 360 33.8 0.0 0.00 0.00 0.00 20 1000.0
20260504000558 24 360 35.4 0.0 0.00 0.00 0.00 21 1000.1
20260504000107 24 360 33.8 0.0 0.00 0.00 0.00 21 1000.1
20260503235559 25 360 32.2 0.0 0.00 0.00 0.00 21 1000.0
20260503235058 24 360 29.0 0.0 0.00 0.00 0.00 23 1000.2
20260503234556 24 360 24.1 0.0 0.00 0.00 0.00 24 1000.3
20260503234055 24 360 24.1 0.0 0.00 0.00 0.00 25 1000.5
20260503233556 23 360 25.7 0.0 0.00 0.00 0.00 25 1000.6
20260503233054 24 360 30.6 0.0 0.00 0.00 0.00 24 1000.8
20260503232054 24 360 24.1 0.0 0.00 0.00 0.00 24 1000.9
20260503231554 24 360 24.1 0.0 0.00 0.00 0.00 24 1001.2
20260503231056 24 360 24.1 0.0 0.00 0.00 0.00 24 1001.2
20260503230555 24 360 25.7 0.0 0.00 0.00 0.00 24 1001.4
20260503230052 24 360 25.7 0.0 0.00 0.00 0.00 22 1001.5
20260503225551 24 360 27.4 0.0 0.00 0.00 0.00 22 1001.6
20260503225049 24 360 30.6 0.0 0.00 0.00 0.00 22 1001.8
20260503224557 24 360 29.0 0.0 0.00 0.00 0.00 22 1001.9
20260503224048 24 360 27.4 0.0 0.00 0.00 0.00 21 1002.0
20260503223547 24 360 27.4 0.0 0.00 0.00 0.00 22 1002.1
20260503223047 24 360 25.7 0.0 0.00 0.00 0.00 22 1002.2
20260503222047 24 360 29.0 0.0 0.00 0.00 0.00 21 1002.5
20260503221557 24 360 32.2 0.0 0.00 0.00 0.00 20 1002.5
20260503221049 24 360 30.6 0.0 0.00 0.00 0.00 20 1002.5
20260503220544 24 360 29.0 0.0 0.00 0.00 0.00 24 1002.8
20260503220043 24 360 27.4 0.0 0.00 0.00 0.00 24 1002.7
20260503215541 23 360 27.4 0.0 0.00 0.00 0.00 25 1002.7
20260503215041 23 360 30.6 0.0 0.00 0.00 0.00 24 1003.0
20260503214542 23 360 29.0 0.0 0.00 0.00 0.00 25 1003.1
20260503214039 23 360 27.4 0.0 0.00 0.00 0.00 25 1003.4
20260503213539 23 360 27.4 0.0 0.00 0.00 0.00 25 1003.3
20260503213044 24 360 29.0 0.0 0.00 0.00 0.00 25 1003.6
20260503212039 24 360 29.0 0.0 0.00 0.00 0.00 24 1003.8
20260503211537 23 360 30.6 0.0 0.00 0.00 0.00 25 1004.0
20260503211036 24 360 30.6 0.0 0.00 0.00 0.00 24 1004.0
20260503210536 23 360 27.4 0.0 0.00 0.00 0.00 23 1004.0
20260503210036 23 360 27.4 0.0 0.00 0.00 0.00 22 1004.2
20260503205536 23 360 25.7 0.0 0.00 0.00 0.00 24 1004.3
20260503205035 23 360 25.7 0.0 0.00 0.00 0.00 25 1004.5
20260503204533 23 360 27.4 0.0 0.00 0.00 0.00 25 1004.7
20260503204035 23 360 27.4 0.0 0.00 0.00 0.00 25 1004.5
20260503203534 23 360 27.4 0.0 0.00 0.00 0.00 25 1004.7
20260503203037 23 360 25.7 0.0 0.00 0.00 0.00 25 1004.7
20260503202033 23 360 29.0 0.0 0.00 0.00 0.00 24 1004.9
20260503201532 23 360 27.4 0.0 0.00 0.00 0.00 25 1005.0
20260503201032 23 360 25.7 0.0 0.00 0.00 0.00 27 1004.9
20260503200533 24 360 25.7 0.0 0.00 0.00 0.00 26 1005.1
20260503200030 23 360 27.4 0.0 0.00 0.00 0.00 26 1005.4
20260503195530 23 360 25.7 0.0 0.00 0.00 0.00 25 1005.3
20260503195028 23 360 27.4 0.0 0.00 0.00 0.00 27 1005.6
20260503194527 23 360 25.7 0.0 0.00 0.00 0.00 25 1005.8
20260503194027 23 360 24.1 0.0 0.00 0.00 0.00 28 1005.9
20260503193525 23 360 24.1 0.0 0.00 0.00 0.00 27 1006.0
20260503193040 23 360 27.4 0.0 0.00 0.00 0.00 28 1006.1
20260503192030 22 360 24.1 0.0 0.00 0.00 0.00 27 1006.4
20260503191557 22 360 25.7 0.0 0.00 0.00 0.00 29 1006.4
20260503191029 23 360 29.0 0.0 0.00 0.00 0.00 28 1006.6
20260503190527 23 360 24.1 0.0 0.00 0.00 0.00 28 1006.7
20260503190027 23 360 24.1 0.0 0.00 0.00 0.00 28 1006.7
20260503185525 23 360 25.7 0.0 0.00 0.00 0.00 28 1006.9
20260503185021 22 360 27.4 0.0 0.00 0.00 0.00 29 1007.0
20260503184521 23 360 27.4 0.0 0.00 0.00 0.00 28 1007.1
20260503184020 22 360 25.7 0.0 0.00 0.00 0.00 29 1007.3
20260503183522 22 360 29.0 0.0 0.00 0.00 0.00 28 1007.6
20260503183018 22 360 29.0 0.0 0.00 0.00 0.00 28 1007.7
20260503182016 22 360 25.7 0.0 0.00 0.00 0.00 28 1007.9
20260503181516 22 360 29.0 0.0 0.00 0.00 0.00 30 1008.1
20260503181016 22 360 29.0 0.0 0.00 0.00 0.00 27 1008.2
20260503180515 22 360 27.4 0.0 0.00 0.00 0.00 29 1008.3
20260503180014 22 360 25.7 0.0 0.00 0.00 0.00 28 1008.3
20260503175513 22 360 25.7 0.0 0.00 0.00 0.00 29 1008.3
20260503175016 22 360 29.0 0.0 0.00 0.00 0.00 29 1008.5
20260503174512 22 360 27.4 0.0 0.00 0.00 0.00 29 1008.6
20260503174016 22 360 24.1 0.0 0.00 0.00 0.00 31 1008.6
20260503173511 21 360 24.1 0.0 0.00 0.00 0.00 30 1008.8
20260503173010 21 360 25.7 0.0 0.00 0.00 0.00 30 1008.8
20260503172013 21 360 25.7 0.0 0.00 0.00 0.00 31 1009.0
20260503171509 21 360 27.4 0.0 0.00 0.00 0.00 30 1009.0
20260503171008 21 360 24.1 0.0 0.00 0.00 0.00 28 1009.2
20260503170507 21 360 20.9 0.0 0.00 0.00 0.00 31 1009.3
20260503160108 20 360 20.9 0.0 0.00 0.00 0.00 34 1010.5
20260503150551 18 360 20.9 0.0 0.00 0.00 0.00 34 1011.4
20260503131022 6 360 1.6 0.0 0.00 0.00 0.00 65 1012.8
20260503130521 6 360 1.6 0.0 0.00 0.00 0.00 67 1012.8
20260503110504 -1 360 0.0 0.0 0.00 0.00 0.00 81 1013.5
20260503081554 -1 360 1.6 0.0 0.00 0.00 0.00 72 1014.1
20260503081052 -1 360 1.6 0.0 0.00 0.00 0.00 72 1014.1